QPF
0.00 0.00 0.00 0.00 0.00 0.00 0.00 0.00 0.00 0.00 0.00 0.00 0.00 0.00 0.00 0.00 0.00 0.00 0.00 0.00 0.00 0.00 0.00 0.00 0.00 0.00 0.00 0.00 0.00 0.00 0.00 0.00 0.00 0.00 0.00 0.00 0.00 0.00 0.00 0.00 0.00 0.00 0.00 0.00
0.00 0.00 0.00 0.00 0.00 0.00 0.00 0.00 0.00 0.00 0.00 0.00 0.00 0.00 0.00 0.00 0.00 0.00 0.00 0.00 0.00 0.00 0.00 0.00 0.00 0.00 0.00 0.00 0.00 0.00 0.00 0.00 0.00 0.00 0.00 0.00 0.00 0.00 0.00 0.00 0.00 0.00 0.00 0.00
0.00 0.00 0.00 0.00 0.00 0.00 0.00 0.00 0.00 0.00 0.00 0.00 0.00 0.00 0.00 0.00 0.00 0.00 0.00 0.00 0.00 0.00 0.00 0.00 0.00 0.00 0.00 0.00 0.00 0.00 0.00 0.00 0.00 0.00 0.00 0.00 0.00 0.00 0.00 0.00 0.00 0.00 0.00 0.00
0.00 0.00 0.00 0.00 0.00 0.00 0.00 0.00 0.00 0.00 0.00 0.00 0.00 0.00 0.00 0.00 0.00 0.00 0.00 0.00 0.00 0.00 0.00 0.00 0.00 0.00 0.00 0.00 0.00 0.00 0.00 0.00 0.00 0.00 0.00 0.00 0.00 0.00 0.00 0.00 0.00 0.00 0.00 0.00
0.00 0.00 0.00 0.00 0.00 0.00 0.00 0.00 0.00 0.00 0.00 0.00 0.00 0.00 0.00 0.00 0.00 0.00 0.00 0.00 0.00 0.00 0.00 0.00 0.00 0.00 0.00 0.00 0.00 0.00 0.00 0.00 0.00 0.00 0.00 0.00 0.00 0.00 0.00 0.00 0.00 0.00 0.00 0.00
0.00 0.00 0.00 0.00 0.00 0.00 0.00 0.00 0.00 0.00 0.00 0.00 0.00 0.00 0.00 0.00 0.00 0.00 0.00 0.00 0.00 0.00 0.00 0.00 0.00 0.00 0.00 0.00 0.00 0.00 0.00 0.00 0.00 0.00 0.00 0.00 0.00 0.00 0.00 0.00 0.00 0.00 0.00 0.00
0.00 0.00 0.00 0.00 0.00 0.00 0.00 0.00 0.00 0.00 0.00 0.00 0.00 0.00 0.00 0.00 0.00 0.00 0.00 0.00 0.00 0.00 0.00 0.00 0.00 0.00 0.00 0.00 0.00 0.00 0.00 0.00 0.00 0.00 0.00 0.00 0.00 0.00 0.00 0.00 0.00 0.00 0.00 0.00
0.00 0.00 0.00 0.00 0.00 0.00 0.00 0.00 0.00 0.00 0.00 0.00 0.00 0.00 0.00 0.00 0.00 0.00 0.00 0.00 0.00 0.00 0.00 0.00 0.00 0.00 0.00 0.00 0.00 0.00 0.00 0.00 0.00 0.00 0.00 0.00 0.00 0.00 0.00 0.00 0.00 0.00 0.00 0.00
0.00 0.00 0.00 0.00 0.00 0.00 0.00 0.00 0.00 0.00 0.00 0.00 0.00 0.00 0.00 0.00 0.00 0.00 0.00 0.00 0.00 0.00 0.00 0.00 0.00 0.00 0.00 0.00 0.00 0.00 0.00 0.00 0.00 0.00 0.00 0.00 0.00 0.00 0.00 0.00 0.00 0.00 0.00 0.00
0.00 0.00 0.00 0.00 0.00 0.00 0.00 0.00 0.00 0.00 0.00 0.00 0.00 0.00 0.00 0.00 0.00 0.00 0.00 0.00 0.00 0.00 0.00 0.00 0.00 0.00 0.00 0.00 0.00 0.00 0.00 0.00 0.00 0.00 0.00 0.00 0.00 0.00 0.00 0.00 0.00 0.00 0.00 0.00
0.00 0.00 0.00 0.00 0.00 0.00 0.00 0.00 0.00 0.00 0.00 0.00 0.00 0.00 0.00 0.00 0.00 0.00 0.00 0.00 0.00 0.00 0.00 0.00 0.00 0.00 0.00 0.00 0.00 0.00 0.00 0.00 0.00 0.00 0.00 0.00 0.00 0.00 0.00 0.00 0.00 0.00 0.00 0.00
0.00 0.00 0.00 0.00 0.00 0.00 0.00 0.00 0.00 0.00 0.00 0.00 0.00 0.00 0.00 0.00 0.00 0.00 0.00 0.00 0.00 0.00 0.00 0.00 0.00 0.00 0.00 0.00 0.00 0.00 0.00 0.00 0.00 0.00 0.00 0.00 0.00 0.00 0.00 0.00 0.00 0.00 0.00 0.01
0.00 0.00 0.00 0.00 0.00 0.00 0.00 0.00 0.00 0.00 0.00 0.00 0.00 0.00 0.00 0.00 0.00 0.00 0.00 0.00 0.00 0.00 0.00 0.00 0.00 0.00 0.00 0.00 0.00 0.00 0.00 0.00 0.00 0.00 0.00 0.00 0.00 0.00 0.00 0.00 0.00 0.00 0.01 0.01
0.00 0.00 0.00 0.00 0.00 0.00 0.00 0.00 0.00 0.00 0.00 0.00 0.00 0.00 0.00 0.00 0.00 0.00 0.00 0.00 0.00 0.00 0.00 0.00 0.00 0.00 0.00 0.00 0.00 0.00 0.00 0.00 0.00 0.00 0.00 0.00 0.00 0.00 0.00 0.00 0.00 0.00 0.00 0.01
0.00 0.00 0.00 0.00 0.00 0.00 0.00 0.00 0.00 0.00 0.00 0.00 0.00 0.00 0.00 0.00 0.00 0.00 0.00 0.00 0.00 0.00 0.00 0.00 0.00 0.00 0.00 0.00 0.00 0.00 0.00 0.00 0.00 0.00 0.00 0.00 0.00 0.00 0.00 0.00 0.00 0.00 0.00 0.01
0.01 0.01 0.01 0.00 0.00 0.00 0.00 0.00 0.00 0.00 0.00 0.00 0.00 0.00 0.00 0.00 0.00 0.00 0.00 0.00 0.00 0.00 0.00 0.00 0.00 0.00 0.00 0.00 0.00 0.00 0.00 0.00 0.00 0.00 0.00 0.00 0.00 0.00 0.00 0.00 0.00 0.00 0.01 0.01
0.02 0.01 0.01 0.00 0.00 0.00 0.01 0.01 0.01 0.00 0.00 0.00 0.00 0.00 0.00 0.00 0.00 0.00 0.00 0.00 0.00 0.00 0.00 0.00 0.00 0.00 0.00 0.00 0.00 0.00 0.00 0.00 0.00 0.00 0.00 0.00 0.00 0.00 0.00 0.00 0.00 0.01 0.01 0.01
0.02 0.01 0.01 0.01 0.01 0.01 0.01 0.01 0.01 0.01 0.00 0.00 0.00 0.00 0.00 0.00 0.00 0.00 0.00 0.00 0.00 0.00 0.00 0.00 0.00 0.00 0.00 0.00 0.00 0.00 0.00 0.00 0.00 0.00 0.00 0.00 0.00 0.00 0.00 0.00 0.00 0.01 0.01 0.01
0.01 0.01 0.01 0.01 0.01 0.01 0.01 0.01 0.01 0.01 0.01 0.00 0.00 0.00 0.00 0.00 0.00 0.00 0.00 0.00 0.00 0.00 0.00 0.00 0.00 0.00 0.00 0.00 0.00 0.00 0.00 0.00 0.00 0.00 0.00 0.00 0.00 0.00 0.00 0.00 0.00 0.01 0.01 0.01
0.01 0.01 0.01 0.01 0.01 0.01 0.01 0.01 0.01 0.00 0.00 0.00 0.00 0.00 0.00 0.00 0.00 0.00 0.00 0.00 0.00 0.00 0.00 0.00 0.00 0.00 0.00 0.00 0.00 0.00 0.00 0.00 0.00 0.00 0.00 0.00 0.00 0.00 0.00 0.00 0.00 0.01 0.01 0.02
0.02 0.02 0.02 0.02 0.02 0.01 0.01 0.01 0.01 0.01 0.01 0.00 0.00 0.00 0.00 0.00 0.00 0.00 0.00 0.00 0.00 0.00 0.00 0.00 0.00 0.00 0.00 0.00 0.00 0.00 0.00 0.00 0.00 0.00 0.00 0.00 0.00 0.00 0.00 0.00 0.00 0.01 0.01 0.02
0.03 0.03 0.02 0.02 0.01 0.01 0.01 0.01 0.01 0.01 0.01 0.01 0.01 0.01 0.00 0.00 0.00 0.00 0.00 0.00 0.00 0.00 0.00 0.00 0.00 0.00 0.00 0.00 0.00 0.00 0.00 0.00 0.00 0.00 0.00 0.00 0.00 0.00 0.00 0.00 0.00 0.01 0.01 0.01
0.03 0.03 0.03 0.03 0.03 0.02 0.02 0.02 0.01 0.01 0.01 0.01 0.01 0.01 0.00 0.00 0.00 0.00 0.00 0.00 0.00 0.00 0.00 0.00 0.00 0.00 0.00 0.00 0.00 0.00 0.00 0.00 0.00 0.00 0.00 0.00 0.00 0.00 0.00 0.00 0.01 0.01 0.01 0.01
0.05 0.05 0.05 0.04 0.04 0.04 0.04 0.03 0.02 0.01 0.01 0.00 0.00 0.00 0.00 0.00 0.00 0.00 0.00 0.00 0.00 0.00 0.00 0.00 0.00 0.00 0.00 0.00 0.00 0.00 0.00 0.00 0.00 0.00 0.00 0.00 0.00 0.00 0.00 0.00 0.00 0.01 0.01 0.01
0.02 0.03 0.02 0.02 0.02 0.02 0.01 0.01 0.01 0.00 0.00 0.00 0.00 0.01 0.01 0.00 0.00 0.01 0.01 0.01 0.01 0.01 0.01 0.01 0.00 0.00 0.00 0.00 0.00 0.00 0.00 0.00 0.00 0.00 0.00 0.00 0.00 0.00 0.00 0.00 0.00 0.01 0.01 0.01
0.01 0.01 0.01 0.01 0.01 0.01 0.00 0.00 0.00 0.01 0.01 0.01 0.01 0.01 0.01 0.01 0.01 0.01 0.01 0.01 0.01 0.01 0.01 0.01 0.01 0.01 0.00 0.00 0.00 0.00 0.00 0.00 0.00 0.00 0.00 0.00 0.00 0.00 0.00 0.00 0.00 0.00 0.00 0.00
0.00 0.01 0.01 0.01 0.00 0.00 0.00 0.00 0.00 0.00 0.01 0.01 0.01 0.01 0.01 0.01 0.01 0.01 0.01 0.01 0.01 0.02 0.01 0.01 0.01 0.01 0.01 0.00 0.00 0.00 0.00 0.00 0.00 0.00 0.00 0.00 0.00 0.00 0.00 0.00 0.00 0.00 0.01 0.00
MSLP
1015.20 1015.59 1016.03 1016.50 1016.97 1017.40 1017.74 1017.95 1018.00 1017.90 1017.67 1017.35 1017.00 1016.68 1016.44 1016.31 1016.29 1016.37 1016.51 1016.66 1016.79 1016.87 1016.86 1016.78 1016.63 1016.43 1016.21 1015.98 1015.76 1015.53 1015.28 1015.00 1014.67 1014.28 1013.83 1013.34 1012.84 1012.33 1011.85 1011.41 1011.01 1010.65 1010.30 1009.96
1015.38 1015.70 1016.02 1016.33 1016.62 1016.86 1017.05 1017.16 1017.17 1017.10 1016.96 1016.78 1016.60 1016.45 1016.36 1016.33 1016.37 1016.45 1016.56 1016.66 1016.72 1016.73 1016.68 1016.57 1016.42 1016.25 1016.06 1015.87 1015.66 1015.44 1015.19 1014.88 1014.51 1014.08 1013.58 1013.05 1012.50 1011.95 1011.43 1010.95 1010.51 1010.11 1009.73 1009.35
1015.64 1015.86 1016.04 1016.18 1016.30 1016.38 1016.43 1016.45 1016.44 1016.41 1016.35 1016.30 1016.26 1016.24 1016.26 1016.32 1016.39 1016.47 1016.54 1016.58 1016.58 1016.53 1016.44 1016.32 1016.18 1016.03 1015.87 1015.70 1015.52 1015.30 1015.04 1014.72 1014.32 1013.86 1013.34 1012.78 1012.21 1011.64 1011.10 1010.60 1010.14 1009.71 1009.29 1008.88
1015.94 1016.03 1016.05 1016.03 1015.99 1015.94 1015.89 1015.85 1015.82 1015.82 1015.84 1015.88 1015.95 1016.04 1016.14 1016.25 1016.34 1016.41 1016.45 1016.45 1016.40 1016.32 1016.20 1016.08 1015.94 1015.80 1015.66 1015.51 1015.34 1015.13 1014.86 1014.52 1014.11 1013.63 1013.11 1012.54 1011.98 1011.42 1010.89 1010.39 1009.93 1009.48 1009.05 1008.62
1016.18 1016.11 1015.98 1015.82 1015.65 1015.49 1015.37 1015.30 1015.28 1015.31 1015.39 1015.51 1015.66 1015.82 1015.98 1016.11 1016.22 1016.28 1016.29 1016.26 1016.20 1016.10 1015.98 1015.86 1015.74 1015.62 1015.49 1015.34 1015.17 1014.94 1014.65 1014.30 1013.88 1013.40 1012.88 1012.34 1011.80 1011.28 1010.78 1010.32 1009.87 1009.44 1009.01 1008.57
1016.22 1016.00 1015.73 1015.46 1015.20 1014.99 1014.84 1014.77 1014.77 1014.85 1014.99 1015.17 1015.37 1015.57 1015.76 1015.91 1016.02 1016.08 1016.09 1016.05 1015.99 1015.90 1015.80 1015.70 1015.60 1015.49 1015.36 1015.21 1015.01 1014.76 1014.45 1014.08 1013.65 1013.17 1012.68 1012.17 1011.68 1011.20 1010.76 1010.34 1009.93 1009.53 1009.12 1008.68
1015.95 1015.60 1015.23 1014.89 1014.59 1014.37 1014.24 1014.21 1014.27 1014.40 1014.60 1014.82 1015.06 1015.29 1015.49 1015.65 1015.76 1015.82 1015.84 1015.82 1015.78 1015.73 1015.67 1015.60 1015.51 1015.42 1015.29 1015.12 1014.89 1014.61 1014.26 1013.86 1013.42 1012.95 1012.48 1012.01 1011.57 1011.16 1010.78 1010.42 1010.07 1009.71 1009.33 1008.92
1015.32 1014.88 1014.46 1014.09 1013.82 1013.64 1013.58 1013.62 1013.76 1013.96 1014.21 1014.48 1014.75 1014.99 1015.19 1015.34 1015.46 1015.53 1015.57 1015.59 1015.59 1015.58 1015.56 1015.53 1015.47 1015.38 1015.24 1015.05 1014.79 1014.46 1014.08 1013.65 1013.20 1012.73 1012.29 1011.86 1011.48 1011.13 1010.81 1010.52 1010.22 1009.91 1009.57 1009.20
1014.35 1013.86 1013.44 1013.11 1012.90 1012.82 1012.86 1013.01 1013.24 1013.53 1013.84 1014.14 1014.42 1014.67 1014.87 1015.02 1015.13 1015.22 1015.29 1015.34 1015.39 1015.44 1015.47 1015.47 1015.44 1015.36 1015.20 1014.98 1014.68 1014.31 1013.89 1013.44 1012.98 1012.52 1012.10 1011.72 1011.38 1011.09 1010.83 1010.59 1010.35 1010.09 1009.79 1009.47
1013.13 1012.65 1012.26 1012.01 1011.91 1011.96 1012.13 1012.40 1012.74 1013.11 1013.48 1013.82 1014.11 1014.35 1014.54 1014.69 1014.81 1014.91 1015.00 1015.10 1015.19 1015.28 1015.36 1015.40 1015.38 1015.30 1015.13 1014.88 1014.55 1014.15 1013.70 1013.23 1012.76 1012.32 1011.92 1011.57 1011.28 1011.04 1010.82 1010.63 1010.42 1010.20 1009.95 1009.66
1011.82 1011.36 1011.05 1010.91 1010.93 1011.12 1011.42 1011.82 1012.26 1012.71 1013.13 1013.50 1013.81 1014.05 1014.23 1014.37 1014.49 1014.60 1014.71 1014.84 1014.98 1015.11 1015.21 1015.27 1015.26 1015.18 1015.00 1014.72 1014.37 1013.95 1013.49 1013.01 1012.55 1012.13 1011.75 1011.44 1011.18 1010.97 1010.79 1010.61 1010.43 1010.23 1010.01 1009.75
1010.56 1010.16 1009.93 1009.89 1010.04 1010.35 1010.78 1011.28 1011.81 1012.33 1012.80 1013.19 1013.50 1013.74 1013.92 1014.05 1014.18 1014.30 1014.43 1014.58 1014.74 1014.89 1015.01 1015.08 1015.08 1014.98 1014.79 1014.50 1014.13 1013.71 1013.25 1012.79 1012.35 1011.95 1011.61 1011.32 1011.09 1010.90 1010.73 1010.56 1010.39 1010.19 1009.97 1009.72
1009.50 1009.15 1009.00 1009.05 1009.29 1009.70 1010.21 1010.80 1011.39 1011.95 1012.45 1012.86 1013.18 1013.42 1013.60 1013.74 1013.87 1014.00 1014.15 1014.32 1014.49 1014.65 1014.77 1014.84 1014.82 1014.72 1014.51 1014.22 1013.85 1013.43 1012.99 1012.56 1012.15 1011.79 1011.48 1011.23 1011.02 1010.83 1010.66 1010.48 1010.29 1010.08 1009.84 1009.59
1008.73 1008.42 1008.31 1008.41 1008.71 1009.16 1009.73 1010.35 1010.97 1011.55 1012.07 1012.49 1012.82 1013.07 1013.26 1013.42 1013.56 1013.71 1013.87 1014.04 1014.22 1014.37 1014.49 1014.54 1014.51 1014.39 1014.18 1013.89 1013.53 1013.14 1012.73 1012.33 1011.97 1011.65 1011.38 1011.15 1010.95 1010.77 1010.58 1010.39 1010.16 1009.92 1009.66 1009.39
1008.27 1007.98 1007.88 1007.99 1008.29 1008.75 1009.31 1009.93 1010.55 1011.13 1011.64 1012.07 1012.41 1012.67 1012.89 1013.06 1013.23 1013.40 1013.57 1013.75 1013.92 1014.07 1014.17 1014.21 1014.16 1014.03 1013.82 1013.53 1013.19 1012.82 1012.45 1012.10 1011.79 1011.51 1011.28 1011.07 1010.88 1010.70 1010.50 1010.27 1010.01 1009.73 1009.43 1009.13
1008.12 1007.81 1007.69 1007.77 1008.03 1008.44 1008.96 1009.53 1010.12 1010.67 1011.17 1011.59 1011.94 1012.23 1012.46 1012.67 1012.86 1013.05 1013.24 1013.43 1013.60 1013.74 1013.83 1013.85 1013.79 1013.65 1013.43 1013.16 1012.84 1012.51 1012.18 1011.87 1011.60 1011.36 1011.16 1010.98 1010.80 1010.61 1010.39 1010.14 1009.85 1009.53 1009.20 1008.87
1008.23 1007.88 1007.71 1007.72 1007.91 1008.25 1008.69 1009.19 1009.71 1010.21 1010.68 1011.09 1011.44 1011.73 1011.99 1012.22 1012.44 1012.65 1012.86 1013.06 1013.23 1013.36 1013.44 1013.45 1013.38 1013.24 1013.03 1012.77 1012.48 1012.18 1011.89 1011.63 1011.39 1011.19 1011.01 1010.85 1010.68 1010.48 1010.25 1009.98 1009.68 1009.34 1008.99 1008.64
1008.52 1008.13 1007.90 1007.83 1007.94 1008.17 1008.51 1008.92 1009.36 1009.79 1010.20 1010.58 1010.91 1011.20 1011.47 1011.71 1011.95 1012.18 1012.40 1012.60 1012.77 1012.90 1012.98 1012.99 1012.93 1012.80 1012.61 1012.37 1012.11 1011.85 1011.59 1011.36 1011.16 1010.98 1010.82 1010.67 1010.50 1010.31 1010.09 1009.82 1009.51 1009.18 1008.83 1008.49
1008.95 1008.52 1008.24 1008.10 1008.10 1008.24 1008.47 1008.77 1009.10 1009.45 1009.79 1010.10 1010.39 1010.66 1010.91 1011.14 1011.37 1011.60 1011.82 1012.02 1012.20 1012.34 1012.43 1012.45 1012.41 1012.31 1012.15 1011.95 1011.73 1011.50 1011.28 1011.07 1010.89 1010.73 1010.58 1010.44 1010.28 1010.10 1009.89 1009.65 1009.36 1009.06 1008.74 1008.44
1009.45 1009.01 1008.69 1008.49 1008.42 1008.45 1008.58 1008.77 1008.99 1009.23 1009.47 1009.70 1009.91 1010.12 1010.31 1010.51 1010.71 1010.91 1011.12 1011.32 1011.50 1011.65 1011.76 1011.82 1011.82 1011.76 1011.66 1011.50 1011.32 1011.13 1010.94 1010.76 1010.59 1010.44 1010.31 1010.17 1010.03 1009.87 1009.69 1009.48 1009.25 1009.00 1008.74 1008.50
1009.98 1009.56 1009.23 1008.99 1008.86 1008.81 1008.84 1008.91 1009.02 1009.14 1009.26 1009.37 1009.48 1009.59 1009.70 1009.82 1009.96 1010.12 1010.30 1010.49 1010.67 1010.85 1010.99 1011.10 1011.16 1011.16 1011.12 1011.03 1010.90 1010.76 1010.60 1010.44 1010.29 1010.15 1010.01 1009.89 1009.76 1009.63 1009.49 1009.34 1009.18 1009.01 1008.83 1008.67
1010.52 1010.13 1009.81 1009.57 1009.39 1009.28 1009.22 1009.19 1009.18 1009.17 1009.15 1009.13 1009.10 1009.08 1009.08 1009.10 1009.16 1009.26 1009.39 1009.56 1009.75 1009.95 1010.14 1010.31 1010.44 1010.52 1010.56 1010.54 1010.48 1010.39 1010.27 1010.14 1010.00 1009.87 1009.74 1009.63 1009.52 1009.42 1009.33 1009.25 1009.16 1009.08 1009.00 1008.93
1011.01 1010.68 1010.39 1010.16 1009.97 1009.81 1009.68 1009.55 1009.42 1009.28 1009.12 1008.95 1008.78 1008.62 1008.48 1008.39 1008.35 1008.37 1008.45 1008.60 1008.79 1009.02 1009.26 1009.50 1009.71 1009.89 1010.01 1010.08 1010.09 1010.06 1009.98 1009.88 1009.76 1009.64 1009.52 1009.42 1009.33 1009.27 1009.23 1009.21 1009.21 1009.21 1009.23 1009.25
1011.42 1011.16 1010.92 1010.71 1010.51 1010.33 1010.13 1009.92 1009.69 1009.42 1009.13 1008.82 1008.50 1008.19 1007.93 1007.72 1007.58 1007.52 1007.55 1007.68 1007.87 1008.13 1008.43 1008.73 1009.03 1009.30 1009.51 1009.67 1009.76 1009.79 1009.76 1009.69 1009.59 1009.49 1009.38 1009.29 1009.23 1009.20 1009.20 1009.24 1009.31 1009.40 1009.50 1009.60
1011.73 1011.53 1011.34 1011.15 1010.97 1010.76 1010.52 1010.24 1009.92 1009.55 1009.14 1008.71 1008.26 1007.83 1007.45 1007.13 1006.91 1006.78 1006.77 1006.87 1007.07 1007.36 1007.70 1008.07 1008.45 1008.80 1009.11 1009.34 1009.51 1009.60 1009.63 1009.59 1009.52 1009.43 1009.34 1009.27 1009.22 1009.22 1009.26 1009.35 1009.47 1009.62 1009.79 1009.96
1011.91 1011.76 1011.61 1011.45 1011.27 1011.05 1010.78 1010.46 1010.08 1009.63 1009.13 1008.61 1008.07 1007.55 1007.07 1006.68 1006.39 1006.21 1006.16 1006.25 1006.45 1006.76 1007.14 1007.57 1008.01 1008.43 1008.81 1009.12 1009.36 1009.51 1009.58 1009.59 1009.55 1009.49 1009.41 1009.35 1009.33 1009.34 1009.41 1009.53 1009.69 1009.89 1010.10 1010.30
1011.94 1011.83 1011.71 1011.57 1011.39 1011.17 1010.89 1010.54 1010.12 1009.63 1009.08 1008.51 1007.91 1007.34 1006.82 1006.38 1006.05 1005.84 1005.77 1005.85 1006.05 1006.37 1006.78 1007.24 1007.73 1008.20 1008.63 1009.01 1009.30 1009.50 1009.63 1009.68 1009.68 1009.64 1009.59 1009.55 1009.54 1009.58 1009.66 1009.79 1009.97 1010.18 1010.41 1010.64
Thickness
5720 5725 5724 5723 5720 5712 5704 5693 5683 5689 5687 5693 5693 5690 5685 5680 5674 5669 5663 5657 5651 5644 5638 5633 5628 5622 5618 5613 5609 5604 5600 5596 5592 5587 5583 5579 5575 5571 5567 5564 5561 5557 5554 5552
5718 5723 5723 5719 5719 5715 5709 5701 5696 5694 5691 5699 5696 5688 5683 5677 5671 5665 5659 5654 5649 5643 5636 5630 5625 5619 5614 5609 5605 5600 5595 5592 5588 5583 5578 5574 5570 5566 5562 5558 5555 5551 5548 5546
5702 5712 5715 5704 5716 5714 5710 5708 5699 5691 5695 5698 5691 5686 5681 5675 5669 5663 5658 5652 5646 5640 5633 5627 5621 5615 5610 5605 5601 5596 5592 5588 5584 5579 5574 5570 5566 5561 5557 5553 5549 5546 5544 5541
5694 5702 5690 5706 5722 5721 5712 5710 5706 5703 5701 5696 5692 5687 5682 5676 5669 5663 5657 5651 5645 5638 5631 5625 5619 5613 5607 5602 5597 5593 5589 5585 5580 5575 5571 5566 5561 5557 5553 5549 5545 5542 5540 5537
5685 5687 5695 5712 5719 5715 5707 5705 5710 5704 5701 5695 5688 5682 5678 5677 5671 5664 5658 5651 5643 5636 5629 5622 5616 5610 5604 5599 5594 5590 5586 5582 5577 5572 5567 5562 5558 5554 5549 5545 5542 5539 5536 5534
5686 5689 5686 5708 5726 5723 5713 5700 5712 5705 5698 5689 5681 5669 5671 5678 5672 5664 5657 5649 5642 5635 5628 5621 5615 5608 5601 5597 5592 5587 5583 5579 5574 5569 5564 5559 5555 5550 5546 5542 5539 5536 5534 5531
5689 5689 5697 5721 5726 5720 5695 5698 5717 5707 5698 5687 5680 5678 5678 5677 5670 5664 5656 5649 5642 5633 5626 5619 5613 5606 5599 5594 5590 5586 5581 5577 5573 5568 5562 5558 5553 5548 5544 5540 5537 5535 5533 5530
5685 5688 5697 5728 5719 5711 5711 5720 5716 5707 5699 5691 5686 5683 5678 5673 5667 5661 5653 5647 5640 5631 5624 5618 5611 5604 5598 5594 5590 5585 5580 5576 5572 5567 5562 5558 5552 5548 5543 5539 5536 5533 5531 5529
5704 5710 5726 5728 5728 5730 5723 5718 5714 5707 5701 5694 5686 5681 5676 5671 5664 5658 5652 5645 5638 5630 5623 5617 5611 5603 5598 5594 5589 5584 5580 5576 5571 5567 5562 5557 5551 5547 5543 5539 5535 5532 5529 5527
5710 5720 5729 5730 5730 5728 5723 5721 5716 5710 5702 5694 5687 5682 5674 5668 5661 5655 5649 5643 5636 5628 5621 5616 5610 5604 5598 5594 5588 5583 5579 5575 5571 5566 5562 5558 5553 5548 5543 5539 5535 5532 5529 5526
5712 5722 5728 5732 5730 5728 5724 5720 5714 5708 5701 5695 5687 5680 5674 5666 5660 5654 5648 5641 5634 5627 5620 5615 5610 5604 5599 5594 5588 5583 5579 5575 5571 5566 5562 5558 5555 5550 5546 5542 5536 5532 5529 5525
5715 5727 5724 5729 5734 5729 5722 5717 5712 5705 5698 5693 5687 5680 5673 5666 5659 5653 5646 5640 5633 5627 5620 5615 5609 5604 5600 5594 5588 5582 5578 5575 5570 5566 5563 5559 5555 5553 5550 5545 5541 5536 5531 5527
5731 5734 5730 5733 5732 5728 5723 5718 5712 5705 5699 5692 5686 5679 5672 5665 5658 5652 5646 5640 5633 5627 5621 5615 5609 5604 5600 5594 5588 5583 5578 5574 5570 5567 5563 5559 5556 5553 5551 5550 5546 5542 5537 5532
5730 5728 5726 5728 5727 5725 5721 5717 5710 5704 5698 5691 5684 5677 5670 5664 5657 5651 5646 5641 5634 5628 5621 5615 5609 5605 5600 5594 5589 5584 5579 5575 5571 5567 5563 5559 5556 5553 5550 5547 5546 5544 5541 5536
5726 5727 5726 5727 5724 5719 5715 5709 5702 5696 5691 5685 5680 5674 5668 5662 5656 5651 5646 5640 5633 5626 5621 5615 5610 5605 5600 5594 5589 5584 5579 5575 5572 5568 5564 5560 5557 5554 5551 5549 5546 5544 5542 5540
5721 5721 5720 5718 5715 5711 5707 5702 5697 5692 5687 5682 5676 5672 5667 5661 5655 5650 5644 5638 5631 5626 5621 5615 5610 5605 5599 5593 5588 5584 5579 5576 5573 5569 5565 5562 5559 5556 5553 5550 5547 5545 5543 5540
5711 5710 5709 5707 5706 5703 5701 5698 5695 5691 5685 5679 5675 5670 5663 5657 5651 5646 5642 5637 5631 5626 5621 5615 5610 5605 5598 5593 5587 5583 5579 5575 5573 5569 5565 5562 5559 5556 5553 5550 5548 5546 5544 5541
5711 5712 5710 5707 5704 5699 5695 5693 5690 5686 5681 5678 5672 5665 5659 5653 5649 5646 5641 5635 5628 5623 5619 5614 5609 5603 5597 5592 5586 5582 5578 5574 5570 5567 5564 5561 5558 5555 5553 5550 5548 5546 5544 5542
5704 5703 5702 5700 5697 5694 5690 5686 5683 5680 5677 5672 5666 5661 5657 5652 5648 5643 5637 5630 5625 5622 5619 5615 5608 5602 5596 5590 5586 5580 5576 5573 5570 5566 5563 5560 5558 5555 5552 5550 5548 5546 5544 5541
5690 5691 5690 5688 5686 5683 5679 5677 5675 5671 5668 5665 5660 5655 5651 5648 5644 5638 5632 5627 5626 5623 5619 5612 5606 5600 5595 5589 5584 5579 5575 5572 5569 5565 5562 5559 5556 5554 5552 5549 5547 5545 5543 5541
5674 5675 5676 5674 5672 5670 5668 5666 5663 5660 5658 5655 5651 5648 5646 5643 5640 5634 5628 5626 5626 5620 5614 5609 5603 5598 5593 5587 5582 5577 5573 5570 5567 5563 5560 5557 5555 5553 5550 5548 5546 5544 5542 5540
5658 5659 5659 5659 5658 5656 5655 5654 5651 5650 5648 5646 5644 5641 5638 5635 5632 5629 5626 5625 5623 5617 5611 5605 5600 5595 5590 5585 5580 5575 5571 5568 5564 5561 5558 5555 5553 5551 5549 5547 5545 5543 5541 5538
5641 5642 5642 5642 5641 5641 5642 5640 5638 5637 5637 5636 5635 5633 5631 5630 5627 5623 5621 5621 5617 5612 5607 5603 5597 5592 5586 5582 5577 5573 5569 5566 5562 5559 5556 5553 5550 5548 5546 5544 5542 5540 5539 5537
5626 5627 5628 5628 5628 5628 5627 5627 5626 5626 5626 5626 5626 5625 5623 5621 5620 5619 5618 5615 5611 5607 5603 5599 5593 5588 5583 5578 5574 5570 5566 5563 5559 5556 5553 5550 5548 5545 5543 5541 5540 5538 5536 5534
5611 5612 5612 5612 5612 5612 5612 5612 5613 5614 5615 5616 5616 5616 5615 5614 5613 5613 5610 5608 5604 5600 5597 5593 5587 5583 5578 5574 5570 5566 5563 5559 5556 5553 5550 5548 5545 5542 5540 5538 5536 5534 5533 5531
5594 5594 5594 5595 5595 5595 5597 5597 5598 5600 5601 5602 5604 5605 5605 5604 5603 5602 5600 5598 5596 5592 5589 5586 5582 5577 5573 5569 5565 5562 5558 5555 5552 5549 5546 5544 5541 5539 5536 5534 5532 5530 5528 5527
5577 5577 5578 5580 5582 5582 5582 5582 5583 5585 5586 5587 5589 5591 5591 5591 5591 5590 5589 5587 5585 5583 5580 5577 5574 5570 5567 5563 5560 5556 5553 5550 5547 5544 5542 5539 5537 5534 5532 5529 5527 5525 5523 5522